Погода Ново-Иерусалим

Погода Ново-Иерусалим : погода сейчас, прогноз погоды и архив. Всё, что Вы хотите узнать о погоде Ново-Иерусалим!

Поиск расширенной информации на нашем сайте:

Другие новости

Новости СМИ2

Главная страница сайта

Новости сайта

03.07.2017

Напоминаем, что на нашем специализированном сайте Метеоцентр.Азия вы можете получить высокодетализированные автоматические прогнозы погоды по пунктам России, СНГ и мира в авиационном формате (включающие направление и скорость ветра, видимость, явления погоды, количество и форму облачности, нижнюю и верхнюю границу облачности).


Погода Ново-Иерусалим - сегодня

Время (UTC), дата Ветер
(°,м/с) 
Видим.   Явления Облачность Т
(°С)
Тd
(°С)
f(%) Тe
(°С)
Pmin
(гПа)
dP
(гПа)
Po
(мм)
O2
(г/м3)
Тmin Tmax R s Состояние
почвы
18 18.01.18 130 (ЮВ) 4000 м  слаб. ливневой снег  10/10 600 м кучево-дожд. 
[Cb calv]
-5.4 -6.7 91 -8  1009.8  0.6  742  306    -5.4     
21 18.01.18 130 (ЮВ) 2000 м  слаб. ливневой снег  10/10 600 м кучево-дожд. 
[Cb calv]
-4.3 -5.1 94 -7  1010.3  0.5  743  305           
00 19.01.18 140 (ЮВ) 10 км  {ливн. осадки}  10/10 600 м кучево-дожд. 
[Cb calv]
-3.2 -4.1 93 -7  1009.9  -0.2  742  303           
03 19.01.18 130 (ЮВ) 6-10{10}  10 км    10/10 600 м кучево-дожд. 
[Cb calv]
-3.3 -6 82 -7  1010.1  0.1  743  303  -5.4       
06 19.01.18 140 (ЮВ) 4{10}  10 км    10/10 600 м 
[Sc]
-6.1 -10.8 69 -9  1011.9  1.6  744  308  -6.2    равномерный
сухой снег
100% 
09 19.01.18 130 (ЮВ) 6-10{10}  10 км    9/9 600 м 
[Sc]
-7.8 -13.9 62 -13  1013.4  1.3  745  310           
12 19.01.18 120 (ЮВ) 6{12}  10 км    9/6 600 м верхняя 
[Sc|Ci fib]
-7.8 -12 72 -13  1013.3  0.1  745  310           
15 19.01.18 120 (ЮВ) 7-10{12}  10 км    10/10 600 м 
[Sc]
-7.7 -12.7 67 -13  1013.8  0.5  745  310           
18 19.01.18 130 (ЮВ) 5{12}  10 км    10/10 600 м 
[Sc]
-8 -14.2 61 -12  1013.8  745  310    -6.1       
21 19.01.18 120 (ЮВ) 5{10}  10 км    10/10 600 м 
[Sc]
-7.8 -14.4 59 -12  1014  0.2  745  310           
00 20.01.18 120 (ЮВ) 5{10}  10 км    10/10 600 м 
[Sc]
-8.8 -13.9 67 -13  1013.4  -0.6  745  311           
03 20.01.18 110 (В) 10 км    10/10 600 м 
[Sc]
-10.4 -12.3 86 -13  1012.9  -0.6  744  313  -10.4         
06 20.01.18 110 (В) 2000 м  слаб. ливневой снег  10/10 600 м кучево-дожд. 
[Cb calv]
-10.4 -12 88 -14  1012  -0.9  743  313  -10.6    0.4  равномерный
сухой снег
100% 
09 20.01.18 120 (ЮВ) 1000 м  ливневой снег  10/10 600 м кучево-дожд. 
[Cb calv]
-9.6 -11.2 88 -14  1011.5  -0.4  743  311           
12 20.01.18 110 (В) 2000 м  слаб. ливневой снег  10/10 600 м кучево-дожд. 
[Cb calv]
-8.9 -10.5 88 -12  1010.5  -0.9  743  310           
15 20.01.18 110 (В) 2000 м  слаб. ливневой снег  10/10 600 м кучево-дожд. 
[Cb calv]
-8.6 -9.8 91 -11  1010  -0.5  742  310         
18 20.01.18 130 (ЮВ) 4000 м  слаб. ливневой снег  10/10 600 м кучево-дожд. 
[Cb calv]
-8.2 -9.8 88 -11  1009.5  -0.4  742  309    -8.2     
21 20.01.18 110 (В) 4000 м  слаб. ливневой снег  10/10 600 м кучево-дожд. 
[Cb calv]
-8.2 -9.4 91 -10  1009.3  -0.2  742  309           
00 21.01.18 110 (В) 4000 м  слаб. ливневой снег  10/10 600 м кучево-дожд. 
[Cb calv]
-7.8 -8.9 92 -9  1009  -0.3  741  308           
03 21.01.18 090 (В) 4000 м  слаб. ливневой снег  10/10 600 м кучево-дожд. 
[Cb calv]
-7.2 -8.3 92 -7  1008.8  0.1  741  308  -8.6       
06 21.01.18 тихо ()   10 км  {ливн. осадки}  10/10 600 м кучево-дожд. 
[Cb calv]
-6.4 -7.4 93 -6  1009.2  0.4  742  307  -8.2    10  равномерный
сухой снег
100% 
09 21.01.18 110 (В) 4000 м  слаб. ливневой снег  10/10 600 м кучево-дожд. 
[Cb calv]
-4.2 -5.3 92 -4  1009.4  0.4  742  304           
12 21.01.18 300 (СЗ) 4000 м  слаб. ливневой снег  10/10 300 м кучево-дожд. 
[Cb calv]
-2.8 -4.1 91 -2  1009.3  742  303           
15 21.01.18 340 (С) 4000 м  слаб. ливневой снег  10/10 300 м кучево-дожд. 
[Cb calv]
-4.3 -5.5 91 -4  1009.7  742  304         
18 21.01.18 300 (СЗ) 4000 м  слаб. ливневой снег  10/10 300 м кучево-дожд. 
[Cb calv]
-5.5 -6.8 91 -5  1009.7  0.1  742  306    -2.2     
Время (UTC), дата Ветер
(°,м/с) 
Видим.   Явления Облачность Т
(°С)
Тd
(°С)
f(%) Тe
(°С)
Pmin
(гПа)
dP
(гПа)
Po
(мм)
O2
(г/м3)
Тmin Tmax R s Состояние
почвы

Для получения пояснительной информации подведите курсор к названию столбца.

ПОГОДА Ново-Иерусалим - архив

Всё, что Вы хотите узнать о погоде Ново-Иерусалим - удобно и подробно!

Выберите нужную дату (начиная с 1 января 2015* года) и нажмите кнопку "Найти".
Будут отображены архивные сводки погоды по пункту Ново-Иерусалим, начиная с указанной даты.


Отображать данные в формате CSV (для использования в таблицах Excel)


Внимание! Наш архив погоды предназначен исключительно для личного некоммерческого использования в познавательных целях. Если Вам необходимы официальные справки о состоянии погоды (для производственных, юридических, коммерческих и т.п. целей), обращайтесь в органы Росгидромета.

*Примечание: данная дата относится к архиву по метеостанциям СССР (Россия, СНГ, Балтия).
Архив по метеостанциям Зарубежной Европы и Азии (кроме Китая) хранится 10 дней, по другим регионам земного шара (Китай, Африка, Америка, Австралия, Океания) - 1 день.

Ново-Иерусалим - район местоположения метеостанции


Название, широта, долгота, высота метеостанции:
Ново-Иерусалим 55.9°ш. 36.8°д. 162 м над ур. моря [Российская Федерация]

Дополнительная информация

В oтличие oт бoльшинства пoгoдных сайтoв мы публикуем пoдрoбную метеoинфoрмацию в детальнoм прoфессиoнальнoм фoрмате.

Характеристики температуры и влажнoсти вoздуха измеряются на высoте 2 м в тени вдали oт зданий и деревьев.
Скoрoсть ветра измеряется на высoте 10 м (на урoвне рoста челoвека скoрoсть ветра ниже в 1.5-2 раза). Если метеoстанция нахoдится в гoрoде или в лесу, тo скoрoсть ветра занижена на 2-4 м/с пo сравнению с oткрытым местoм. Скoрoсть ветра над акватoриями крупных рек и oзёр, а также на вершинах хoлмoв на 2-5 м/с выше, чем в oбычных услoвиях.
Атмoсфернoе давление в разных тoчках местнoсти мoжет значительнo oтличаться oт давления на метеoстанции, в зависимoсти oт услoвий рельефа (при пoдъёме на 10 м давление пoнижается примернo на 1 мм рт.ст.).